Simultaneous Nadir Overpasses (SNOs) Predictions

Prediction of SNOs between NOAA-15 and METOP-C Satellite Orbit:

Table of predicted SNOs for the next 14.0 days since TLE Epoch: 8/7/2020
Index Date (NOAA-15) Time (NOAA-15) Lat,Lon (NOAA-15) SZA (NOAA-15 ) Date (METOP-C) Time (METOP-C) Lat,Lon (METOP-C) SZA (METOP-C ) Distance(km) Time Diff (sec)
1 08/19/2020 21:10:15 80.95,-101.89 70.20 08/19/2020 21:09:04 80.94,-101.83 70.17 1.60 71
2 08/19/2020 22:00:46 -80.94, 65.80 109.78 08/19/2020 21:59:44 -80.95, 65.66 109.80 2.74 62
3 08/19/2020 22:51:17 80.95,-126.99 70.23 08/19/2020 22:50:25 80.95,-126.97 70.22 0.77 52
4 08/19/2020 23:41:49 -80.95, 40.33 109.76 08/19/2020 23:41:06 -80.94, 40.15 109.80 3.20 43
5 08/20/2020 00:32:20 80.96,-152.46 70.24 08/20/2020 00:31:47 80.94,-152.47 70.22 1.32 33
6 08/20/2020 01:22:52 -80.96, 14.87 109.75 08/20/2020 01:22:27 -80.95, 15.01 109.75 2.57 25
7 08/20/2020 02:13:22 80.95,-177.57 70.28 08/20/2020 02:13:08 80.95,-177.62 70.27 0.99 14
8 08/20/2020 03:03:54 -80.95, -10.23 109.72 08/20/2020 03:03:48 -80.96, -10.13 109.70 2.16 6
9 08/20/2020 03:54:25 80.96, 156.96 70.29 08/20/2020 03:54:30 80.95, 156.88 70.27 2.00 5
10 08/20/2020 04:44:57 -80.96, -35.69 109.71 08/20/2020 04:45:10 -80.95, -35.63 109.70 1.27 13
11 08/20/2020 05:35:27 80.95, 131.86 70.32 08/20/2020 05:35:51 80.95, 131.74 70.32 2.11 24
12 08/20/2020 06:25:59 -80.95, -60.79 109.67 08/20/2020 06:26:31 -80.96, -60.77 109.65 1.24 32
13 08/20/2020 07:16:30 80.96, 106.39 70.33 08/20/2020 07:17:13 80.95, 106.24 70.32 3.06 43
14 08/20/2020 08:07:02 -80.96, -86.25 109.66 08/20/2020 08:07:53 -80.95, -86.27 109.65 0.78 51
15 08/20/2020 08:57:32 80.95, 81.28 70.36 08/20/2020 08:58:34 80.96, 81.09 70.37 3.32 62
